IBE650 EDXW-EDDH

Flight info

Callsign IBE650
Flight time N/A
Altitude 9000
Route OLDIP1B OLDIP DCT BADOS DCT RENSU DCT BOGMU BOGMU3P
Aircraft A320/M-SDE3FGHIRWY/LB1

Departure

Time 2026-04-23 16:50
Airport Westerland Sylt Airport (EDXW)

Arrival

Time N/A
Airport Hamburg Helmut Schmidt Airport (EDDH)
Time Latitude Longitude Altitude Speed Heading
2026-04-23 16:39 54.91418 8.32421 41 ft 0 kts 264°
2026-04-23 16:42 54.91418 8.32429 41 ft 3 kts 265°
2026-04-23 16:42 54.91421 8.32459 41 ft 0 kts 242°
2026-04-23 16:43 54.91417 8.32454 41 ft 0 kts 220°
2026-04-23 16:43 54.91413 8.32457 41 ft 1 kts 180°
2026-04-23 16:44 54.91401 8.32461 38 ft 5 kts 179°
2026-04-23 16:44 54.91302 8.32501 39 ft 16 kts 159°
2026-04-23 16:44 54.91242 8.32575 40 ft 16 kts 137°
2026-04-23 16:44 54.91163 8.32705 40 ft 16 kts 129°
2026-04-23 16:45 54.91087 8.32857 40 ft 17 kts 131°
2026-04-23 16:45 54.91012 8.33007 40 ft 17 kts 132°
2026-04-23 16:45 54.90921 8.33139 40 ft 18 kts 149°
2026-04-23 16:45 54.90861 8.33186 40 ft 0 kts 161°
2026-04-23 16:46 54.90857 8.33188 40 ft 2 kts 161°
2026-04-23 16:46 54.90781 8.33219 40 ft 10 kts 174°
2026-04-23 16:46 54.90647 8.33237 40 ft 15 kts 175°
2026-04-23 16:46 54.90533 8.33259 39 ft 18 kts 168°
2026-04-23 16:47 54.90411 8.33348 39 ft 20 kts 148°
2026-04-23 16:47 54.90315 8.33517 40 ft 20 kts 126°
2026-04-23 16:47 54.90262 8.33736 41 ft 20 kts 101°
2026-04-23 16:47 54.90241 8.33973 41 ft 20 kts 97°
2026-04-23 16:48 54.90243 8.34213 42 ft 20 kts 82°
2026-04-23 16:48 54.90268 8.34454 42 ft 20 kts 80°
2026-04-23 16:48 54.90293 8.34700 42 ft 21 kts 79°
2026-04-23 16:48 54.90320 8.34947 42 ft 21 kts 79°
2026-04-23 16:49 54.90373 8.35144 42 ft 18 kts 43°
2026-04-23 16:49 54.90476 8.35096 43 ft 17 kts 324°
2026-04-23 16:49 54.90638 8.34893 42 ft 54 kts 324°
2026-04-23 16:49 54.91090 8.34334 46 ft 107 kts 325°
2026-04-23 16:50 54.91806 8.33460 281 ft 134 kts 325°
2026-04-23 16:50 54.92602 8.32487 803 ft 143 kts 323°
2026-04-23 16:50 54.93383 8.31511 1686 ft 140 kts 325°
2026-04-23 16:50 54.94237 8.30443 2094 ft 164 kts 325°
2026-04-23 16:51 54.95206 8.29244 2520 ft 178 kts 325°
2026-04-23 16:51 54.96271 8.27937 2886 ft 200 kts 326°
2026-04-23 16:51 54.97434 8.26495 3613 ft 204 kts 324°
2026-04-23 16:51 54.98319 8.24654 3956 ft 201 kts 293°
2026-04-23 16:52 54.98366 8.22216 4094 ft 210 kts 255°
2026-04-23 16:52 54.97493 8.20123 4581 ft 224 kts 227°
2026-04-23 16:52 54.96403 8.18039 5141 ft 241 kts 238°
2026-04-23 16:52 54.95406 8.15557 5809 ft 260 kts 239°
2026-04-23 16:53 54.94038 8.13354 6636 ft 281 kts 207°
2026-04-23 16:53 54.92101 8.12743 7544 ft 291 kts 173°
2026-04-23 16:53 54.90206 8.13958 8458 ft 296 kts 146°
2026-04-23 16:53 54.88566 8.16174 8900 ft 299 kts 135°
2026-04-23 16:54 54.87093 8.18711 9014 ft 298 kts 131°
2026-04-23 16:54 54.85654 8.21293 9020 ft 298 kts 132°
2026-04-23 16:54 54.84181 8.23816 9013 ft 298 kts 134°
2026-04-23 16:54 54.82654 8.26237 9134 ft 297 kts 138°
2026-04-23 16:55 54.80954 8.28325 9323 ft 302 kts 144°
2026-04-23 16:55 54.79194 8.30307 9313 ft 301 kts 146°
2026-04-23 16:55 54.77428 8.32239 9300 ft 301 kts 146°
2026-04-23 16:55 54.75654 8.34161 9301 ft 301 kts 146°
2026-04-23 16:56 54.74094 8.36506 9326 ft 296 kts 125°
2026-04-23 16:56 54.72897 8.39394 9292 ft 296 kts 122°
2026-04-23 16:56 54.71715 8.42312 9296 ft 296 kts 122°
2026-04-23 16:56 54.70556 8.45193 9302 ft 296 kts 122°
2026-04-23 16:57 54.69341 8.48061 9298 ft 296 kts 124°
2026-04-23 16:57 54.68088 8.50882 9297 ft 296 kts 125°
2026-04-23 16:57 54.66821 8.53682 9297 ft 296 kts 125°
2026-04-23 16:57 54.65551 8.56478 9291 ft 296 kts 125°
2026-04-23 16:58 54.64283 8.59270 9294 ft 295 kts 125°
2026-04-23 16:58 54.63016 8.62063 9289 ft 295 kts 125°
2026-04-23 16:58 54.61757 8.64857 9293 ft 295 kts 125°
2026-04-23 16:58 54.60496 8.67654 9287 ft 295 kts 125°
2026-04-23 16:59 54.59237 8.70449 9287 ft 295 kts 125°
2026-04-23 16:59 54.57977 8.73246 9286 ft 295 kts 125°
2026-04-23 16:59 54.56718 8.76042 9286 ft 295 kts 125°
2026-04-23 16:59 54.55460 8.78831 9280 ft 295 kts 125°
2026-04-23 17:00 54.54200 8.81622 9277 ft 295 kts 125°
2026-04-23 17:00 54.52942 8.84407 9280 ft 295 kts 125°
2026-04-23 17:00 54.51679 8.87194 9274 ft 295 kts 125°
2026-04-23 17:00 54.50416 8.89981 9273 ft 295 kts 125°
2026-04-23 17:01 54.49152 8.92761 9275 ft 295 kts 125°
2026-04-23 17:01 54.47886 8.95534 9270 ft 295 kts 125°
2026-04-23 17:01 54.46619 8.98310 9269 ft 295 kts 125°
2026-04-23 17:01 54.45357 9.01086 9266 ft 295 kts 125°
2026-04-23 17:02 54.44095 9.03864 9260 ft 294 kts 125°
2026-04-23 17:02 54.42835 9.06631 9259 ft 294 kts 125°
2026-04-23 17:02 54.41575 9.09402 9254 ft 294 kts 125°
2026-04-23 17:02 54.40330 9.12132 9252 ft 294 kts 125°
2026-04-23 17:03 54.39070 9.14892 9257 ft 294 kts 125°
2026-04-23 17:03 54.37804 9.17656 9254 ft 294 kts 125°
2026-04-23 17:03 54.36542 9.20410 9252 ft 294 kts 126°
2026-04-23 17:03 54.35278 9.23164 9256 ft 294 kts 126°
2026-04-23 17:04 54.34014 9.25917 9249 ft 294 kts 126°
2026-04-23 17:04 54.32750 9.28668 9251 ft 294 kts 125°
2026-04-23 17:04 54.31485 9.31418 9245 ft 294 kts 125°
2026-04-23 17:04 54.30220 9.34164 9249 ft 294 kts 126°
2026-04-23 17:05 54.28955 9.36902 9245 ft 293 kts 126°
2026-04-23 17:05 54.27685 9.39642 9248 ft 294 kts 126°
2026-04-23 17:05 54.26418 9.42375 9240 ft 293 kts 126°
2026-04-23 17:05 54.25149 9.45114 9250 ft 294 kts 126°
2026-04-23 17:06 54.23878 9.47853 9241 ft 294 kts 126°
2026-04-23 17:06 54.22607 9.50589 9249 ft 294 kts 126°
2026-04-23 17:06 54.21338 9.53325 9246 ft 294 kts 126°
2026-04-23 17:06 54.20067 9.56064 9246 ft 294 kts 126°
2026-04-23 17:07 54.18797 9.58799 9249 ft 294 kts 126°
2026-04-23 17:07 54.17523 9.61537 9248 ft 294 kts 126°
2026-04-23 17:07 54.16249 9.64262 9250 ft 294 kts 126°
2026-04-23 17:07 54.14972 9.66986 9247 ft 294 kts 126°
2026-04-23 17:08 54.13694 9.69711 9248 ft 294 kts 126°
2026-04-23 17:08 54.12414 9.72432 9247 ft 294 kts 126°
2026-04-23 17:08 54.11135 9.75152 9248 ft 294 kts 126°
2026-04-23 17:08 54.09858 9.77872 9249 ft 294 kts 126°
2026-04-23 17:09 54.08581 9.80600 9248 ft 295 kts 126°
2026-04-23 17:09 54.07305 9.83329 9249 ft 295 kts 126°
2026-04-23 17:09 54.06026 9.86052 9255 ft 294 kts 126°
2026-04-23 17:09 54.05179 9.87852 9254 ft 294 kts 126°
2026-04-23 17:10 54.04396 9.89518 9255 ft 294 kts 126°
2026-04-23 17:10 54.03114 9.92237 9255 ft 294 kts 126°
2026-04-23 17:10 54.01831 9.94946 9256 ft 294 kts 126°
2026-04-23 17:10 54.00544 9.97657 9258 ft 295 kts 126°
2026-04-23 17:11 53.99258 10.00370 9256 ft 295 kts 126°
2026-04-23 17:11 53.97972 10.03082 9258 ft 295 kts 126°
2026-04-23 17:11 53.96691 10.05784 9141 ft 293 kts 126°
2026-04-23 17:11 53.95417 10.08468 8769 ft 291 kts 126°
2026-04-23 17:12 53.94149 10.11144 8374 ft 291 kts 126°
2026-04-23 17:12 53.92886 10.13811 7995 ft 289 kts 126°
2026-04-23 17:12 53.91625 10.16471 7544 ft 291 kts 126°
2026-04-23 17:12 53.90339 10.19181 6921 ft 299 kts 126°
2026-04-23 17:13 53.89028 10.21951 6442 ft 300 kts 127°
2026-04-23 17:13 53.87784 10.24713 6264 ft 289 kts 125°
2026-04-23 17:13 53.86586 10.27373 6055 ft 281 kts 125°
2026-04-23 17:13 53.85404 10.29962 5636 ft 275 kts 126°
2026-04-23 17:14 53.84231 10.32530 5074 ft 276 kts 126°
2026-04-23 17:14 53.83062 10.35103 4514 ft 275 kts 126°
2026-04-23 17:14 53.81908 10.37675 4047 ft 272 kts 126°
2026-04-23 17:14 53.80800 10.40165 3856 ft 258 kts 126°
2026-04-23 17:15 53.79748 10.42534 3707 ft 246 kts 126°
2026-04-23 17:15 53.78741 10.44817 3578 ft 239 kts 126°
2026-04-23 17:15 53.77757 10.47057 3467 ft 236 kts 125°
2026-04-23 17:15 53.76789 10.49261 3327 ft 231 kts 126°
2026-04-23 17:16 53.75842 10.51412 3197 ft 226 kts 126°
2026-04-23 17:16 53.74915 10.53525 3065 ft 221 kts 126°
2026-04-23 17:16 53.74008 10.55594 2955 ft 217 kts 126°
2026-04-23 17:16 53.72956 10.57296 2960 ft 205 kts 157°
2026-04-23 17:17 53.71576 10.57665 2976 ft 201 kts 196°
2026-04-23 17:17 53.70393 10.56585 2970 ft 193 kts 235°
2026-04-23 17:17 53.69972 10.55314 2954 ft 186 kts 262°
2026-04-23 17:17 53.70246 10.52572 2946 ft 181 kts 300°
2026-04-23 17:18 53.71562 10.48943 2954 ft 181 kts 304°
2026-04-23 17:18 53.72245 10.47181 2990 ft 180 kts 304°
2026-04-23 17:18 53.72930 10.45405 2968 ft 180 kts 304°
2026-04-23 17:19 53.73612 10.43633 2960 ft 180 kts 304°
2026-04-23 17:19 53.74293 10.41858 2962 ft 180 kts 304°
2026-04-23 17:19 53.74976 10.40080 2975 ft 180 kts 304°
2026-04-23 17:19 53.75653 10.38329 2975 ft 180 kts 304°
2026-04-23 17:20 53.76338 10.36559 2982 ft 180 kts 304°
2026-04-23 17:20 53.76935 10.32552 2967 ft 186 kts 267°
2026-04-23 17:21 53.76546 10.28213 2994 ft 187 kts 264°
2026-04-23 17:21 53.76316 10.26046 3004 ft 189 kts 259°
2026-04-23 17:21 53.74617 10.22580 3005 ft 193 kts 241°
2026-04-23 17:22 53.73799 10.20754 3001 ft 196 kts 235°
2026-04-23 17:22 53.72077 10.17208 2682 ft 194 kts 234°
2026-04-23 17:23 53.70373 10.13736 2176 ft 189 kts 235°
2026-04-23 17:23 53.69536 10.12031 1905 ft 188 kts 236°
2026-04-23 17:23 53.67910 10.08727 1392 ft 173 kts 235°
2026-04-23 17:24 53.67154 10.07193 1167 ft 169 kts 237°
2026-04-23 17:24 53.66431 10.05724 954 ft 154 kts 235°
2026-04-23 17:24 53.65206 10.03239 581 ft 128 kts 235°
2026-04-23 17:25 53.64176 10.01147 279 ft 127 kts 233°